Simultaneous Nadir Overpasses (SNOs) Predictions

Prediction of SNOs between FY3D and AQUA Satellite Orbit:

Table of predicted SNOs for the next 14.0 days since TLE Epoch: 4/2/2022
Index Date (FY3D) Time (FY3D) Lat,Lon (FY3D) SZA (FY3D ) Date (AQUA) Time (AQUA) Lat,Lon (AQUA) SZA (AQUA ) Distance(km) Time Diff (sec)
1 04/04/2022 07:19:44 -75.12,-118.70 110.47 04/04/2022 07:20:51 -75.13,-118.74 110.47 1.21 67
2 04/04/2022 08:10:01 73.67, 52.45 67.94 04/04/2022 08:09:50 73.68, 52.41 67.95 1.67 11
3 04/06/2022 22:46:53 75.13,-170.50 68.54 04/06/2022 22:47:41 75.13,-170.42 68.52 2.22 48
4 04/06/2022 23:37:01 -73.41, 1.32 113.36 04/06/2022 23:36:32 -73.41, 1.29 113.35 1.01 29
5 04/09/2022 14:13:46 -74.54, 139.44 113.12 04/09/2022 14:14:16 -74.54, 139.39 113.12 1.76 30
6 04/09/2022 15:04:01 72.97, -49.47 65.19 04/09/2022 15:03:13 72.98, -49.52 65.20 1.47 48
7 04/12/2022 05:40:51 74.37, 88.11 65.72 04/12/2022 05:41:01 74.38, 88.10 65.72 0.44 10
8 04/12/2022 06:31:08 -73.00,-101.30 115.76 04/12/2022 06:30:00 -72.99,-101.24 115.76 1.98 68
9 04/14/2022 20:17:29 75.16,-133.16 65.64 04/14/2022 20:18:37 75.17,-133.25 65.64 2.83 68



Historial Predications of SNOs between FY3D and AQUA
